Skip Navigation Linkswww.weather.gov 
NOAA logo - Click to go to the NOAA homepage National Weather Service Forecast Office   NWS logo - Click to go to the NWS homepage    
Los Angeles, California
navigation bar decoration      
spacer
Printer Friendly  |   Go Back  |  Version: Current   1   2   3   4   5   6   7   8   9   10   |  Font:  A A A  |  
This version is NOT current and may no longer be valid!

HOURLY WEATHER ROUNDUP
 
 ASUS46 KSTO 211104
RWRCA

NORTHERN AND CENTRAL CA REGIONAL WEATHER ROUNDUP
NATIONAL WEATHER SERVICE SACRAMENTO CA
400 AM PDT TUE APR 21 2015

NOTE: FAIR INDICATES FEW OR NO CLOUDS BELOW 12,000 FEET WITH NO
SIGNIFICANT WEATHER AND/OR OBSTRUCTIONS TO VISIBILITY.

CAZ001-003-211200-
NORTHWEST AREA

CITY SKY/WX TMP DP RH WIND PRES REMARKS
CRESCENT CITY CLOUDY 50 48 93 E3 29.92S
UKIAH MOCLDY 52 49 89 S6 29.83S
$$

CAZ006-505>513-211200-
BAY AREA

CITY SKY/WX TMP DP RH WIND PRES REMARKS
SANTA ROSA CLOUDY 52 50 93 CALM 29.83S
SAN RAFAEL N/A 50 MM MM MISG
NAPA CLOUDY 51 48 89 W13 29.84F
CONCORD CLOUDY 54 48 80 W15 29.84S
OAKLAND CITY N/A 55 MM MM MISG
OAKLAND CLOUDY 54 49 83 W14 29.86S
SAN FRAN CITY N/A 52 MM 85 MISG
SAN FRAN ARPT CLOUDY 54 53 97 W8 29.87R
LIVERMORE CLOUDY 56 49 77 W7 29.84S
HAYWARD CLOUDY 55 49 80 W7 29.86S
REDWOOD CITY N/A MM MM MM MISG
MOFFETT ARPT CLOUDY 56 48 74 CALM 29.86F
SAN JOSE ARPT CLOUDY 56 49 77 CALM 29.86S
$$
CAZ034-037-514>518-211200-
CENTRAL COAST

CITY SKY/WX TMP DP RH WIND PRES REMARKS
WATSONVILLE CLOUDY 54 48 80 CALM 29.88F
SALINAS CLOUDY 56 47 71 W3 29.88S
MONTEREY CLOUDY 54 46 74 S3 29.89S
SAN LUIS OBISP CLOUDY 54 47 77 CALM 29.90S
SANTA MARIA CLOUDY 55 48 77 W5 29.91S
$$
CAZ015-016-211200-
NORTHERN SACRAMENTO VALLEY

CITY SKY/WX TMP DP RH WIND PRES REMARKS
REDDING CLEAR 58 51 78 CALM 29.77R
RED BLUFF CLEAR 60 55 83 CALM 29.78R
OROVILLE CLEAR 57 51 80 SE6 29.79S
$$
CAZ016>018-211200-
SOUTHERN SACRAMENTO VALLEY

CITY SKY/WX TMP DP RH WIND PRES REMARKS
AUBURN CLEAR 57 48 72 E7 29.78F
BEALE AFB CLEAR 52 52 100 SE3 29.76S
LINCOLN FAIR 54 46 76 SE9 29.77S
MARYSVILLE CLEAR 54 49 83 SE8 29.78R
SAC INTL ARPT CLEAR 53 49 86 SE12 29.76S
MATHER AIRPORT MOCLDY 48 46 93 SE7 29.79S
DOWNTOWN SAC N/A 53 MM MM MISG
SAC EXEC ARPT CLEAR 53 48 83 S7 29.77S
VACAVILLE CLEAR 55 48 77 SW10 29.76S
TRAVIS AFB PTCLDY 51 49 91 SW25G35 29.75S
$$
CAZ019>021-211200-
SAN JOAQUIN VALLEY

CITY SKY/WX TMP DP RH WIND PRES REMARKS
STOCKTON PTCLDY 52 48 86 CALM 29.78S
MODESTO PTCLDY 53 48 83 N7 29.78S
MERCED PTCLDY 54 48 80 NW10 29.77R
LEMOORE CLEAR 56 41 57 W7 29.79R
FRESNO CLEAR 59 49 69 NW8 29.77R
HANFORD CLEAR 60 48 64 N6 29.78R
PORTERVILLE CLEAR 57 43 58 S8 29.80R
BAKERSFIELD CLEAR 62 42 47 N3 29.79R
$$
CAZ011-012-071-211200-
NORTHERN MOUNTAINS

CITY SKY/WX TMP DP RH WIND PRES REMARKS
YREKA PTCLDY 47 34 60 CALM 29.86S
MOUNT SHASTA PTCLDY 43 33 68 CALM 29.87F
ALTURAS PTCLDY 34 22 61 CALM 29.91R
$$
CAZ011-012-071-211200-
SIERRA NEVADA MTNS

CITY SKY/WX TMP DP RH WIND PRES REMARKS
BLUE CANYON CLEAR 56 28 34 N3 29.94S
TAHOE VLY ARPT CLEAR 34 25 69 CALM 29.98S
MAMMOTH LAKES FAIR 37 21 52 CALM 30.01S
$$



Webmaster
US Dept of Commerce
National Oceanic and Atmospheric Administration
National Weather Service
Los Angeles/Oxnard Weather Forecast Office
520 North Elevar Street
Oxnard, CA 93030

Tel: (805) 988-6610

Disclaimer
Information Quality
Credits
Glossary
Organization
Privacy Policy
Freedom of Information Act
About Us
Career Opportunities